Location: Unspecified
(64.9000°N, 0.0000°E)
Time: 05:59:16
(UTC+00:00)

N. Korean satellite - Visible Passes

Search period start: 20 October 2019 00:00
Search period end: 30 October 2019 00:00
Orbit: 455 x 508 km, 97.2° (Epoch: 19 October)

Date Brightness Start Highest point End Pass type
(mag) Time Alt. Az. Time Alt. Az. Time Alt. Az.
20 Oct 10.1 04:45:09 10° NE 04:47:09 14° E 04:49:08 10° ESE visible
21 Oct 8.1 05:52:24 10° NNE 05:55:50 42° E 05:59:18 10° S visible
21 Oct 10.0 18:14:49 10° WSW 18:16:57 15° W 18:19:06 10° NW visible
22 Oct 9.0 05:27:13 10° NNE 05:30:22 28° E 05:33:33 10° SSE visible
22 Oct 9.4 17:48:33 10° SW 17:51:22 23° W 17:54:14 10° NW visible
23 Oct 9.7 05:02:12 10° NE 05:04:50 19° E 05:07:29 10° SE visible
23 Oct 8.5 17:22:38 10° SSW 17:25:51 34° W 17:29:08 10° NNW visible
24 Oct 10.2 04:37:32 10° NE 04:39:13 13° E 04:40:55 10° ESE visible
24 Oct 7.4 06:09:48 10° NNE 06:13:23 58° ESE 06:17:00 10° S visible
24 Oct 7.4 16:56:59 10° S 17:00:24 55° WSW 17:03:54 10° NNW visible
24 Oct 10.3 18:33:22 10° WSW 18:34:39 12° W 18:35:55 10° WNW visible
25 Oct 8.4 05:44:32 10° NNE 05:47:57 37° E 05:51:23 10° SSE visible
25 Oct 9.8 18:06:34 10° SW 18:08:59 17° W 18:11:26 10° NW visible
26 Oct 9.2 05:19:23 10° NE 05:22:27 25° E 05:25:32 10° SSE visible
26 Oct 9.1 17:40:25 10° SSW 17:43:25 26° W 17:46:28 10° NW visible
27 Oct 9.9 04:54:25 10° NE 04:56:53 17° E 04:59:21 10° SE visible
27 Oct 6.8 06:27:13 10° NNE 06:30:52 80° ESE 06:34:34 10° SSW visible
27 Oct 8.2 17:14:35 10° S 17:17:54 40° W 17:21:19 10° NNW visible
28 Oct 10.4 04:29:57 10° ENE 04:31:14 11° E 04:32:30 10° E visible
28 Oct 7.7 06:01:54 10° NNE 06:05:29 51° ESE 06:09:06 10° S visible
28 Oct 7.1 16:48:59 10° S 16:52:28 64° WSW 16:56:03 10° NNW visible
28 Oct 10.1 18:24:50 10° WSW 18:26:38 13° W 18:28:27 10° NW visible
29 Oct 8.6 05:36:39 10° NNE 05:40:01 33° E 05:43:24 10° SSE visible
29 Oct 9.6 17:58:20 10° SW 18:01:00 20° W 18:03:42 10° NW visible
